Location: Casaglia
(44.0333°N, 11.5167°E)
Time: 09:46:29
(UTC+00:00)

STARLINK-1012 - Pass Details

Date: 07 June 2020
Orbit: 549 x 550 km, 53.0° (Epoch: 05 July)

Event Time Altitude Azimuth Distance (km) Brightness Sun altitude
Exits shadow 02:37:45 11° 235° (SW) 1,769 5.5 -8.4°
Maximum altitude 02:41:46 88° 325° (NW) 554 3.6 -7.9°
Drops below altitude 10° 02:45:55 10° 55° (NE) 1,825 8.0 -7.3°
Sets 02:48:10 0° 56° (NE) 2,721 9.5 -7.0°
